Regional Weather Roundup
Issued by NWS

Home | Current Version | Previous Version | Text Only | Print | Product List | Glossary On
Versions: 1 2 3 4 5 6 7 8 9 10 11 12 13 14 15 16 17 18 19 20 21 22 23 24 25 26 27 28 29 30 31 32 33 34 35 36 37 38 39 40 41 42 43 44 45 46 47 48 49 50
000
ASUS43 KLSX 232159
RWRMO

WEATHER SUMMARY FOR MISSOURI
NATIONAL WEATHER SERVICE SPRINGFIELD MO
500 PM CDT THU MAR 23 2017

NOTE: "FAIR" INDICATES FEW OR NO CLOUDS BELOW 12,000 FEET WITH NO
       SIGNIFICANT WEATHER AND/OR OBSTRUCTIONS TO VISIBILITY.
       CURRENT SKY AND/OR WEATHER CONDITIONS ARE NOT AVAILABLE FOR
       CHILLICOTHE AND FARMINGTON.

MOZ001>031-035>038-043-044-053-054-232300-
...NORTHERN AND WESTERN MISSOURI...

CITY           SKY/WX    TMP DP  RH WIND       PRES   REMARKS
KANSAS CTY INT MOSUNNY   80  51  36 S25G36    29.78F
KANSAS C DTWN  MOSUNNY   81  51  35 S21G35    29.78F
LEE`S SUMMIT   SUNNY     78  51  38 S17G32    29.80F
ST JOSEPH      SUNNY     81  54  39 S26G33    29.75F
CHILLICOTHE      N/A     79  50  36 S20G26    29.81F
KIRKSVILLE     SUNNY     65  38  36 SE20G29   29.89F

$$
MOZ066>068-077>081-088>096-101>105-232300-
...SOUTHWEST MISSOURI...

CITY           SKY/WX    TMP DP  RH WIND       PRES   REMARKS
SPRINGFIELD    SUNNY     77  51  40 S21G30    29.93F
JOPLIN         SUNNY     77  45  32 S24G33    29.90F
BRANSON        SUNNY     77  45  31 S16G22    30.00F

$$
MOZ032>034-039>042-045>050-055>058-069>072-232300-
...CENTRAL MISSOURI...

CITY           SKY/WX    TMP DP  RH WIND       PRES   REMARKS
COLUMBIA       SUNNY     78  52  40 S22G32    29.92F
JEFFERSON CITY SUNNY     81  50  33 S18G30    29.92F
ROLLA          SUNNY     76  51  41 S23G33    29.96F
SEDALIA        SUNNY     80  47  31 S20G31    29.88F
WARRENSBURG    SUNNY     77  46  33 SE22G28   29.84F
OSAGE BEACH    SUNNY    N/A N/A N/A S14       29.94F

$$
MOZ051-052-059>065-232300-
...EAST CENTRAL MISSOURI...

CITY           SKY/WX    TMP DP  RH WIND       PRES   REMARKS
ST LOUIS INTL  MOSUNNY   60  42  51 SE18G26   30.06F
SPIRIT OF STL  SUNNY     62  44  51 SE13G21   30.02F
ST CHARLES     SUNNY     58  43  57 SE17      30.04F

$$
MOZ072>076-082>087-097>100-106>115-232300-
...SOUTH CENTRAL AND SOUTHEAST MISSOURI...

CITY           SKY/WX    TMP DP  RH WIND       PRES   REMARKS
CAPE GIRARDEAU SUNNY     64  41  42 S10       30.14F
FARMINGTON     SUNNY     69  44  40 S15       30.08F
POPLAR BLUFF   SUNNY     67  48  50 S12       30.12F
WEST PLAINS    SUNNY     74  52  46 S15G25    30.06F

$$




USA.gov is the U.S. government's official web portal to all federal, state and local government web resources and services.